Regional Weather Roundup
Issued by NWS

Home | Current Version | Previous Version | Text Only | Print | Product List | Glossary On
Versions: 1 2 3 4 5 6 7 8 9 10 11 12 13 14 15 16 17 18 19 20 21 22 23 24 25 26 27 28 29 30 31 32 33 34 35 36 37 38 39 40 41 42 43 44 45 46 47 48 49 50
000
ASUS43 KLSX 252310
RWRMO

WEATHER SUMMARY FOR MISSOURI
NATIONAL WEATHER SERVICE SPRINGFIELD MO
600 PM CDT TUE JUL 25 2017

NOTE: "FAIR" INDICATES FEW OR NO CLOUDS BELOW 12,000 FEET WITH NO
       SIGNIFICANT WEATHER AND/OR OBSTRUCTIONS TO VISIBILITY.
       CURRENT SKY AND/OR WEATHER CONDITIONS ARE NOT AVAILABLE FOR
       CHILLICOTHE AND FARMINGTON.

MOZ001>031-035>038-043-044-053-054-260000-
...NORTHERN AND WESTERN MISSOURI...

CITY           SKY/WX    TMP DP  RH WIND       PRES   REMARKS
KANSAS CTY INT MOSUNNY   94  72  48 S10       30.01F HX 102
KANSAS C DTWN  MOSUNNY   93  74  53 SE9       29.99F HX 103
LEE`S SUMMIT   SUNNY     92  73  53 S8        30.03F HX 100
ST JOSEPH      SUNNY     91  74  57 S10       29.99F HX 100
CHILLICOTHE      N/A     89  77  67 SE9       30.04F HX 101
KIRKSVILLE     SUNNY     89  69  51 SE9       30.07F HX  93

$$
MOZ066>068-077>081-088>096-101>105-260000-
...SOUTHWEST MISSOURI...

CITY           SKY/WX    TMP DP  RH WIND       PRES   REMARKS
SPRINGFIELD    CLOUDY    93  68  43 W7        30.05R HX  97
JOPLIN         MOSUNNY   95  70  44 S10       30.03F HX 101
BRANSON        MOSUNNY   93  68  43 S3        30.07S HX  97

$$
MOZ032>034-039>042-045>050-055>058-069>072-260000-
...CENTRAL MISSOURI...

CITY           SKY/WX    TMP DP  RH WIND       PRES   REMARKS
COLUMBIA       SUNNY     90  70  51 E7        30.06F HX  95
JEFFERSON CITY SUNNY     92  66  42 E8        30.03F HX  94
ROLLA          SUNNY     91  67  44 E8        30.07F HX  94
SEDALIA        SUNNY     91  78  65 E7        30.05F HX 106
WHITEMAN AFB   SUNNY     91  77  62 E7        30.03F HX 104
WARRENSBURG    SUNNY     90  73  58 NE6       30.02F HX  98
OSAGE BEACH    SUNNY     94  69  44 E8        30.04S HX  99

$$
MOZ051-052-059>065-260000-
...EAST CENTRAL MISSOURI...

CITY           SKY/WX    TMP DP  RH WIND       PRES   REMARKS
ST LOUIS INTL  MOSUNNY   91  70  49 E12       30.06F HX  96
SPIRIT OF STL  MOSUNNY   92  71  50 NE12      30.03F HX  98
ST CHARLES     SUNNY     89  70  53 SE9       30.05F HX  94

$$
MOZ072>076-082>087-097>100-106>115-260000-
...SOUTH CENTRAL AND SOUTHEAST MISSOURI...

CITY           SKY/WX    TMP DP  RH WIND       PRES   REMARKS
CAPE GIRARDEAU CLOUDY    88  75  65 E6        30.04S HX  97
FARMINGTON     PTSUNNY   89  76  65 E12       30.06S HX 100
POPLAR BLUFF   SUNNY     92  77  61 S8        30.01F HX 105
WEST PLAINS    PTSUNNY   92  67  43 S7        30.06F HX  95

$$




USA.gov is the U.S. government's official web portal to all federal, state and local government web resources and services.